Tiempo cada hora Dąbrowa Tarnowska

Hoy, 28 Noviembre, Sábado

Tiempo Temperatura Precipitaciones Viento Presión Humedad
00:00 +2°C° 0 mm 2 mps 747 mmHg 92%
01:00 +2°C° 0 mm 2 mps 747 mmHg 92%
02:00 +2°C° 0 mm 2 mps 746 mmHg 90%
03:00 +2°C° 0 mm 2 mps 746 mmHg 88%
04:00 +2°C° 0 mm 2 mps 746 mmHg 86%
05:00 +2°C° 0 mm 2 mps 746 mmHg 88%
06:00 0°C° 0 mm 3 mps 746 mmHg 91%
07:00 0°C° 0 mm 3 mps 746 mmHg 94%
08:00 0°C° 0 mm 3 mps 746 mmHg 91%
09:00 +1°C° 0 mm 3 mps 746 mmHg 89%
10:00 0°C° 0 mm 4 mps 746 mmHg 86%
11:00 +1°C° 0.1 mm 4 mps 746 mmHg 81%
12:00 +1°C° 0.1 mm 4 mps 746 mmHg 77%
13:00 +3°C° 0.1 mm 4 mps 746 mmHg 72%
14:00 +1°C° 0.1 mm 4 mps 746 mmHg 79%
15:00 +1°C° 0.1 mm 3 mps 746 mmHg 85%
16:00 +1°C° 0.1 mm 3 mps 746 mmHg 92%
17:00 0°C° 0.3 mm 3 mps 746 mmHg 91%
18:00 +1°C° 0.3 mm 2 mps 747 mmHg 90%
19:00 -1°C° 0.3 mm 2 mps 747 mmHg 89%
20:00 -1°C° 0.1 mm 2 mps 747 mmHg 89%
21:00 -1°C° 0.1 mm 2 mps 747 mmHg 90%
22:00 -1°C° 0.1 mm 2 mps 747 mmHg 91%
23:00 -1°C° 0.3 mm 2 mps 747 mmHg 92%

Mañana, 29 Noviembre, Domingo

Tiempo Temperatura Precipitaciones Viento Presión Humedad
00:00 -1°C° 0.3 mm 2 mps 747 mmHg 94%
01:00 -2°C° 0.3 mm 2 mps 747 mmHg 96%
02:00 -2°C° 0.3 mm 2 mps 747 mmHg 96%
03:00 -2°C° 0.3 mm 2 mps 747 mmHg 96%
04:00 -2°C° 0.3 mm 3 mps 746 mmHg 96%
05:00 -2°C° 0.1 mm 2 mps 746 mmHg 96%
06:00 -2°C° 0.1 mm 2 mps 746 mmHg 97%
07:00 -2°C° 0.1 mm 2 mps 747 mmHg 97%
08:00 -2°C° 0 mm 2 mps 747 mmHg 94%
09:00 -1°C° 0 mm 2 mps 747 mmHg 91%
10:00 -1°C° 0 mm 2 mps 747 mmHg 89%
11:00 -1°C° 0 mm 2 mps 747 mmHg 86%
12:00 +2°C° 0 mm 1 mps 747 mmHg 84%
13:00 +2°C° 0 mm 1 mps 747 mmHg 81%
14:00 +1°C° 0 mm 1 mps 747 mmHg 84%
15:00 +1°C° 0 mm 1 mps 747 mmHg 86%
16:00 0°C° 0 mm 1 mps 747 mmHg 89%
17:00 0°C° 0 mm 1 mps 747 mmHg 90%
18:00 0°C° 0 mm 1 mps 747 mmHg 91%
19:00 0°C° 0 mm 1 mps 747 mmHg 92%
20:00 0°C° 0.1 mm 1 mps 747 mmHg 94%
21:00 0°C° 0.1 mm 1 mps 747 mmHg 95%
22:00 0°C° 0.1 mm 1 mps 747 mmHg 97%
23:00 0°C° 0.1 mm 1 mps 748 mmHg 97%

Pasado mañana, 30 Noviembre, Lunes

Tiempo Temperatura Precipitaciones Viento Presión Humedad
00:00 0°C° 0.1 mm 1 mps 748 mmHg 97%
01:00 0°C° 0.1 mm 1 mps 748 mmHg 97%
02:00 -1°C° 0.1 mm 1 mps 748 mmHg 97%
03:00 -1°C° 0.1 mm 1 mps 748 mmHg 96%
04:00 -1°C° 0.1 mm 1 mps 748 mmHg 96%
05:00 -1°C° 0 mm 1 mps 749 mmHg 96%
06:00 -1°C° 0 mm 1 mps 749 mmHg 96%
07:00 -3°C° 0 mm 2 mps 750 mmHg 96%
08:00 -1°C° 0 mm 1 mps 750 mmHg 93%
09:00 0°C° 0 mm 1 mps 750 mmHg 91%
10:00 0°C° 0 mm 1 mps 751 mmHg 88%
11:00 +1°C° 0 mm 1 mps 751 mmHg 85%
12:00 -1°C° 0 mm 2 mps 751 mmHg 83%
13:00 -1°C° 0 mm 2 mps 751 mmHg 80%
14:00 -1°C° 0 mm 2 mps 751 mmHg 81%
15:00 +1°C° 0 mm 1 mps 751 mmHg 81%
16:00 0°C° 0 mm 1 mps 751 mmHg 82%
17:00 0°C° 0 mm 1 mps 752 mmHg 81%
18:00 0°C° 0 mm 1 mps 752 mmHg 80%
19:00 0°C° 0 mm 1 mps 752 mmHg 80%
20:00 0°C° 0 mm 1 mps 752 mmHg 80%
21:00 0°C° 0 mm 1 mps 752 mmHg 80%
22:00 -2°C° 0 mm 2 mps 752 mmHg 81%
23:00 -2°C° 0 mm 2 mps 752 mmHg 82%

1 Diciembre, Martes

Tiempo Temperatura Precipitaciones Viento Presión Humedad
00:00 -3°C° 0 mm 2 mps 751 mmHg 83%
01:00 -3°C° 0 mm 2 mps 751 mmHg 84%
02:00 -3°C° 0 mm 2 mps 751 mmHg 85%
03:00 -4°C° 0 mm 2 mps 751 mmHg 86%
04:00 -5°C° 0 mm 2 mps 751 mmHg 87%
05:00 -5°C° 0 mm 2 mps 750 mmHg 87%
06:00 -5°C° 0 mm 2 mps 750 mmHg 87%
07:00 -5°C° 0 mm 2 mps 750 mmHg 87%
08:00 -4°C° 0 mm 2 mps 750 mmHg 84%
09:00 -3°C° 0 mm 2 mps 750 mmHg 81%
10:00 -2°C° 0 mm 2 mps 750 mmHg 78%
11:00 -2°C° 0 mm 2 mps 749 mmHg 78%
12:00 -1°C° 0 mm 2 mps 749 mmHg 78%
13:00 +1°C° 0 mm 2 mps 749 mmHg 77%
14:00 -1°C° 0 mm 2 mps 748 mmHg 81%
15:00 -2°C° 0 mm 2 mps 748 mmHg 84%
16:00 -3°C° 0 mm 2 mps 748 mmHg 88%
17:00 -3°C° 0 mm 2 mps 748 mmHg 88%
18:00 -3°C° 0 mm 2 mps 748 mmHg 87%
19:00 -3°C° 0 mm 2 mps 749 mmHg 87%
20:00 -4°C° 0 mm 2 mps 749 mmHg 87%
21:00 -4°C° 0 mm 2 mps 749 mmHg 86%
22:00 -4°C° 0 mm 2 mps 749 mmHg 86%
23:00 -4°C° 0 mm 2 mps 749 mmHg 86%

2 Diciembre, Miércoles

Tiempo Temperatura Precipitaciones Viento Presión Humedad
00:00 -4°C° 0 mm 2 mps 749 mmHg 87%
01:00 -4°C° 0 mm 2 mps 749 mmHg 87%
02:00 -4°C° 0 mm 2 mps 749 mmHg 87%
03:00 -4°C° 0 mm 2 mps 749 mmHg 87%
04:00 -4°C° 0 mm 2 mps 749 mmHg 87%
05:00 -4°C° 0 mm 2 mps 749 mmHg 87%
06:00 -5°C° 0 mm 2 mps 749 mmHg 87%
07:00 -3°C° 0 mm 1 mps 749 mmHg 87%
08:00 -4°C° 0 mm 2 mps 749 mmHg 83%
09:00 -3°C° 0 mm 2 mps 749 mmHg 80%
10:00 -3°C° 0 mm 2 mps 749 mmHg 77%
11:00 -2°C° 0 mm 2 mps 749 mmHg 75%
12:00 -2°C° 0 mm 2 mps 749 mmHg 74%
13:00 -1°C° 0 mm 2 mps 748 mmHg 72%
14:00 -2°C° 0 mm 2 mps 748 mmHg 76%
15:00 -3°C° 0 mm 2 mps 748 mmHg 80%
16:00 -4°C° 0 mm 2 mps 748 mmHg 84%
17:00 -4°C° 0 mm 2 mps 748 mmHg 84%
18:00 -4°C° 0 mm 2 mps 748 mmHg 85%
19:00 -4°C° 0 mm 2 mps 748 mmHg 85%
20:00 -4°C° 0 mm 2 mps 748 mmHg 85%
21:00 -5°C° 0 mm 2 mps 748 mmHg 86%
22:00 -5°C° 0 mm 2 mps 748 mmHg 86%
23:00 -5°C° 0 mm 2 mps 748 mmHg 86%

3 Diciembre, Jueves

Tiempo Temperatura Precipitaciones Viento Presión Humedad
00:00 -5°C° 0 mm 2 mps 747 mmHg 86%
01:00 -5°C° 0 mm 2 mps 747 mmHg 86%
02:00 -5°C° 0 mm 2 mps 747 mmHg 85%
03:00 -5°C° 0 mm 2 mps 747 mmHg 85%
04:00 -5°C° 0 mm 2 mps 746 mmHg 85%
05:00 -5°C° 0 mm 2 mps 746 mmHg 84%
06:00 -5°C° 0 mm 2 mps 746 mmHg 84%
07:00 -5°C° 0 mm 2 mps 746 mmHg 84%
08:00 -4°C° 0 mm 2 mps 746 mmHg 80%
09:00 -5°C° 0 mm 3 mps 746 mmHg 77%
10:00 -4°C° 0 mm 3 mps 746 mmHg 74%
11:00 -2°C° 0 mm 3 mps 745 mmHg 74%
12:00 -2°C° 0 mm 3 mps 745 mmHg 73%
13:00 -1°C° 0 mm 3 mps 745 mmHg 73%
14:00 -2°C° 0 mm 3 mps 745 mmHg 77%
15:00 -4°C° 0 mm 3 mps 744 mmHg 81%
16:00 -4°C° 0 mm 3 mps 744 mmHg 85%
17:00 -4°C° 0 mm 3 mps 744 mmHg 85%
18:00 -4°C° 0 mm 3 mps 744 mmHg 85%
19:00 -4°C° 0 mm 3 mps 744 mmHg 86%
20:00 -4°C° 0 mm 3 mps 743 mmHg 85%
21:00 -4°C° 0 mm 3 mps 743 mmHg 85%
22:00 -4°C° 0 mm 3 mps 743 mmHg 85%
23:00 -4°C° 0 mm 3 mps 742 mmHg 84%
Mostrar más

Necesitamos Su Consentimiento

Meteoprog y nuestros Proveedores de Servicios pueden almacenar y acceder a sus datos personales como cookies, identificadores de dispositivo u otras tecnologías similares de su dispositivo y procesar dichos datos para personalizar contenido y anuncios, además de ofrecer funciones de redes sociales y analizar el tráfico.

  • Almacenar y/o acceder a información en su dispositivo

    Se puede almacenar o acceder a cookies, identificadores de dispositivo u otra información de su dispositivo para los fines anteriormente indicados.

  • Anuncios y contenido personalizados, medición de anuncios y contenido, percepciones del público, y desarrollo de productos

    Los anuncios y el contenido pueden personalizarse en base a su perfil. Se pueden añadir más datos para personalizar mejor los anuncios y contenidos. Se puede medir el rendimiento de los anuncios y contenidos. Se puede obtener la percepción sobre el público que ha visto los anuncios y contenidos. Dichos datos pueden usarse para desarrollar o mejorar la experiencia del usuario, sistemas y software.

Al hacer clic en ‘Estoy De Acuerdo’ usted permitirá el uso de las cookies, identificadores de dispositivo, balizas web u otras tecnologías similares indicadas. Su configuración puede cambiarse desde el navegador de su dispositivo.

Para ciertos fines, los intereses legítimos pueden ser considerados por encima del consentimiento. Puede leer más sobre ello en nuestra Política de Privacidad y Cookies.